Regional Weather Roundup
Issued by NWS

Home | Current Version | Previous Version | Graphics & Text | Print | Product List | Glossary On
Versions: 1 2 3 4 5 6 7 8 9 10 11 12 13 14 15 16 17 18 19 20 21 22 23 24 25 26 27 28 29 30 31 32 33 34 35 36 37 38 39 40 41 42 43 44 45 46 47 48 49 50
000
ASUS43 KMPX 251801
RWRMN
WEATHER ROUNDUP FOR MINNESOTA
NATIONAL WEATHER SERVICE TWIN CITIES/CHANHASSEN MN
100 PM CDT SAT APR 25 2015


NOTE: "FAIR" INDICATES FEW OR NO CLOUDS BELOW 12,000 FEET WITH NO
SIGNIFICANT WEATHER AND/OR OBSTRUCTIONS TO VISIBILITY. N/A MEANS
CURRENT SKY AND/OR WEATHER CONDITIONS ARE NOT AVAILABLE.

MNZ060>063-068>070-251900-
   Twin Cities Metro

CITY           SKY/WX    TMP DP  RH WIND       PRES   REMARKS
TWIN CITIES    MOSUNNY   56  35  45 E18G24    29.84F
6HR MIN TEMP:  43; 6HR MAX TEMP:  56;

ST PAUL        SUNNY     56  35  45 E15G26    29.86F
CRYSTAL        MOSUNNY   56  35  45 E13G20    29.84F
BLAINE         MOSUNNY   55  36  47 E12G21    29.85F
LAKEVILLE      MOSUNNY   54  39  58 E17G23    29.83F
EDEN PRAIRIE   MOSUNNY   54  37  52 E15G23    29.82F
6HR MIN TEMP:  43; 6HR MAX TEMP:  55;

SOUTH ST PAUL  MOSUNNY   56  34  44 NE12      29.85S
LAKE ELMO      FAIR      55  34  44 E17       29.86F
$$
MNZ001>005-007-008-013>017-022>024-027-028-251900-
   Northwest Minnesota

CITY           SKY/WX    TMP DP  RH WIND       PRES   REMARKS
BEMIDJI        SUNNY     53  32  45 E15       29.93S
HALLOCK        SUNNY     61  34  36 SE14      29.91S
ROSEAU         SUNNY     55  28  35 E17       29.94S
WARROAD        SUNNY     46  30  53 NE14G21   29.97S
THIEF RVR FALL SUNNY     55  34  44 E13G20    29.91F
CROOKSTON      MOSUNNY   57  36  44 SE10      29.90F
FOSSTON        SUNNY     59  36  41 E13       29.90F
DETROIT LAKES  MOSUNNY   54  37  54 SE15      29.89F
MOORHEAD       PTSUNNY   48  36  61 E9        29.91S
PARK RAPIDS    MOSUNNY   55  32  41 SE13G25   29.90F
MAHNOMEN       CLOUDY    53  35  49 S7G22     29.89F
$$
MNZ006-009>011-018-025>026-251900-
   North Central Minnesota

CITY           SKY/WX    TMP DP  RH WIND       PRES   REMARKS
BAUDETTE       SUNNY     56  27  32 SE9       29.95F
FLAG ISLAND    SUNNY     46  28  49 SE9       29.97S
INTL FALLS     SUNNY     52  24  33 E7G18     29.98S
6HR MIN TEMP:  36; 6HR MAX TEMP:  53;

WASKISH        SUNNY     57  30  35 E6G18     29.94F
BIG FORK       SUNNY     55  28  35 SE13      29.95S
LONGVILLE      CLOUDY    52  30  43 SE6       29.93S
GRAND RAPIDS   CLOUDY    50  27  40 E9        29.96S
CRANE LAKE     CLOUDY    50  16  25 NE6       30.00S
ORR            SUNNY     55  16  21 E5        29.94S
COOK           SUNNY     54  25  32 NE9G17    29.96S
WALKER         MOCLDY    47  32  55 E7        29.93S
$$
MNZ012-019>021-037-251900-
   Northeast Minnesota

CITY           SKY/WX    TMP DP  RH WIND       PRES   REMARKS
DULUTH         PTSUNNY   47  28  47 E16G22    29.96F
6HR MIN TEMP:  34; 6HR MAX TEMP:  48;

ELY            SUNNY     52  18  25 NE8       29.96S
HIBBING        CLOUDY    49  22  34 E10       29.96F
EVELETH        SUNNY     52  23  32 E6        29.97F
DULUTH HARBOR  SUNNY     37  32  81 NE23      30.00F
TWO HARBORS    MOSUNNY   46  30  53 NE15      29.98S
SILVER BAY     MOSUNNY   43  19  39 NE14      30.00S
GRAND MARAIS     N/A     40  27  59 NE9       30.04S
G MARAIS ARPRT SUNNY     45  12  26 E9        30.00R
$$
MNZ029>031-032-039>041-046>048-054>057-064-251900-
   West Central Minnesota

CITY           SKY/WX    TMP DP  RH WIND       PRES   REMARKS
FERGUS FALLS   CLOUDY    48  36  61 E10       29.90S
WHEATON        MOSUNNY   43  39  87 E12       29.90R
MORRIS         PTSUNNY   48  41  76 E12       29.86S
ALEXANDRIA     CLOUDY    50  39  66 E13       29.88F
ELBOW LAKE     CLOUDY    45  38  77 E10G16    29.88S
WADENA         SUNNY     52  37  58 E14G22    29.88F
GLENWOOD       SUNNY     52  43  71 E13       29.87F
APPLETON       SUNNY     48  41  76 E13       29.85S
BENSON         CLOUDY    50  39  66 SE9       29.85S
ORTONVILLE     CLOUDY    46  39  76 E8        29.86R
MADISON        PTSUNNY   48  41  76 E13       29.84S
WILLMAR        FAIR      52  43  71 E17       29.86S
$$
MNZ033>034-036-042>043-049>051-058-059-251900-
   Central Minnesota

CITY           SKY/WX    TMP DP  RH WIND       PRES   REMARKS
ST CLOUD       CLOUDY    52  37  56 E16G22    29.87F
6HR MIN TEMP:  42; 6HR MAX TEMP:  53;

SAUK CENTRE    CLOUDY    51  40  65 E17       29.88S
PAYNESVILLE    CLOUDY    48  39  69 NE12G18   29.87S
AITKIN         MOSUNNY   52  30  43 E10G20    29.92S
PINE RIVER     MOSUNNY   52  34  50 E14G21    29.95F
BRAINERD       CLOUDY    49  33  54 E10       29.92F
STAPLES        PTSUNNY   52  36  54 E7        29.90S
LONG PRAIRIE   CLOUDY    50  37  62 E14G21    29.88F
LITTLE FALLS   CLOUDY    52  36  54 E8G21     29.89S
LITCHFIELD     MOSUNNY   54  43  66 E16G22    29.86S
BUFFALO        MOSUNNY   54  36  51 NE13G18   29.86F
MAPLE LAKE     MOSUNNY   56  40  56 E15       29.87S
$$
MNZ037-044-045-052-053-251900-
   East Central Minnesota

CITY           SKY/WX    TMP DP  RH WIND       PRES   REMARKS
PRINCETON      MOSUNNY   57  36  44 E10G17    29.88F
MORA           SUNNY     54  30  40 E9G22     29.90F
CAMBRIDGE      SUNNY     57  37  47 NE9       29.86F
RUSH CITY      PTSUNNY   56  28  34 E7G17     29.88F
MOOSE LAKE     CLOUDY    45  32  61 CALM      29.92F
HINCKLEY       CLOUDY    55  30  38 NE8       29.90F
CLOQUET        CLOUDY    45  23  42 E5        29.95F
MCGREGOR       CLOUDY    48  28  46 E12       29.94F
$$
MNZ071>073-080-081-089-090-097-098-251900-
   Southwest Minnesota

CITY           SKY/WX    TMP DP  RH WIND       PRES   REMARKS
MONTEVIDEO     PTSUNNY   52  45  76 SE13      29.84S
GRANITE FALLS  CLOUDY    53  39  60 NE14G20   29.83F
CANBY          CLOUDY    50  41  71 NE12      29.84R
MARSHALL       CLOUDY    52  37  58 E12G23    29.80F
REDWOOD FALLS  PTSUNNY   54  39  57 E15G21    29.81S
OLIVIA         CLOUDY    50  36  57 E12G21    29.82S
PIPESTONE      PTSUNNY   54  43  66 NE12G18   29.76R
WORTHINGTON    PTSUNNY   52  39  62 E20       29.77R
JACKSON        PTSUNNY   54  37  54 E20       29.78R
TRACY          CLOUDY    54  41  62 E16G22    29.81S
SLAYTON        PTSUNNY   54  39  58 E16G23    29.79S
$$
MNZ065>067-074>077-082>085-091>093-251900-
   South Central Minnesota

CITY           SKY/WX    TMP DP  RH WIND       PRES   REMARKS
MANKATO        CLOUDY    52  37  58 E17       29.82S
NEW ULM        PTSUNNY   52  39  62 E18       29.81S
ST JAMES       PTSUNNY   54  39  58 E16G22    29.81S
FAIRMONT       CLOUDY    52  39  62 NE15      29.78S
GLENCOE        MOSUNNY   56  42  58 NE9G22    29.82F
FARIBAULT      CLOUDY    50  39  66 E13       29.83S
OWATONNA       PTSUNNY   52  39  62 E14       29.82S
WASECA         CLOUDY    50  41  71 E16       29.82S
ALBERT LEA     PTSUNNY   54  45  71 NE15G23   29.78R
$$
MNZ078>079-086>088-094>096-251900-
   Southeast Minnesota

CITY           SKY/WX    TMP DP  RH WIND       PRES   REMARKS
ROCHESTER      CLOUDY    50  40  68 NE20      29.81S
6HR MIN TEMP:  40; 6HR MAX TEMP:  50;

RED WING       PTSUNNY   55  36  47 NE10      29.82F
STANTON        PTSUNNY   54  39  57 E13G18    29.82F
DODGE CENTER   CLOUDY    50  43  76 E17       29.81S
AUSTIN         PTSUNNY   52  43  71 E16G23    29.77S
PRESTON        PTSUNNY   49  37  63 E20       29.79F
$$
ABBREVIATIONS USED IN REMARKS
   TC - TEMPERATURES IN CELSIUS
  WCI - WIND CHILL INDEX
   HX - HEAT INDEX
  VSB - VISIBILITY
$$



USA.gov is the U.S. government's official web portal to all federal, state and local government web resources and services.